SL-8 DEB, 45514

Orbit data source: Space-Track

SL-8 DEB, 45514 is space debris in LEO originally from a launch on Mon, 17 Mar 1980 UTC launched from the Plesetsk Missile And Space Complex (PKMTR). Debris objects in space refer to the collection of defunct objects orbiting the Earth. Examples of debris include non-operational satellites, rocket bodies, and fragments generated from explosions, collisions, or faulty payload assembly.

Loading next visibility...
Identifier
45514, 1980-022D
Orbit
LEO
Country
Flag of CISCIS
Related business
Manufacturer
Unknown
Mission
Spacecraft
Bus & Motor
Unknown
Mass
Unknown
Launch date (UTC)
1980-03-17 (46 years ago)
Launch vehicle
Unknown
Launch site
Plesetsk Missile And Space Complex (PKMTR)
Object type
Payload
Rocket body
Debris
Shape & HBR
Unknown
Radar Cross Section
Small (<0.1 m²)

Expand to show TLE details & history
Last TLE update: 1 day ago

TLE from 1 day ago
0 SL-8 DEB
1 45514U 80022D   25260.45250496  .00000514  00000-0  47556-3 0  9991
2 45514  82.9383  71.4594 0030289 271.7389  88.0301 13.80467007574689
Epoch: 2025-09-17T10:51Z
TLE epoch observation values (Epoch: 2025-09-17T10:51:36.428Z)
Latitude
-0.00002°
Longitude
-88.07063°
Altitude
964.441 km
Speed
7.37 km/s
True Right ascension
04h 45m 50s
True Declination
0° 00' 00"
Sunlit
Object was in daylight at epoch
Visualization orbit readout
Latitude
Unknown
Longitude
Unknown
Altitude
Unknown
Speed
Unknown
Apparent Right ascension
Unknown
Apparent Declination
Unknown
Sunlit
N/A
Visualization observer readout
Local Sidereal Time
08:06:53
Azimuth
Unknown
Elevation
Unknown
Doppler factor
Unknown
Orbital elements
Apogee altitude
981.597 km
Perigee altitude
937.148 km
Semi-major axis
7,337.509 km
Eccentricity
0.00303
Inclination
82.9383°
RAAN
71.4594°
Arg. of periapsis
271.7389°
True anomaly
88.37702°
Mean anomaly
88.0301°
Eccentric anomaly
88.20356°
Mean motion
3.45319 °/min
Orbital period
104.25 mins
BSTAR
0.00047556
Loading maneuver chart data...
Computing Atmospheric mass density...
Loading historical data...
Loading historical data...
Loading historical data...
Loading historical data...
Loading historical data...
Loading historical data...
Loading historical data...
Other satellites on launch #22 in the year 1980 (1980-03-17 UTC)

Documentation

Showing up to 5 results
|